THOR ABLESTAR DEB, 407

Orbit data source: Space-Track

THOR ABLESTAR DEB, 407 is space debris in LEO originally from a launch on Thu, 29 Jun 1961 UTC launched from the Air Force Eastern Test Range (AFETR). Debris objects in space refer to the collection of defunct objects orbiting the Earth. Examples of debris include non-operational satellites, rocket bodies, and fragments generated from explosions, collisions, or faulty payload assembly.

Loading next visibility...
Identifier
407, 1961-015EG
Orbit
LEO
Country
Flag of USUS
Related business
Manufacturer
Unknown
Mission
Spacecraft
Bus & Motor
Unknown
Mass
Unknown
Launch date (UTC)
1961-06-29 (64 years ago)
Launch vehicle
Unknown
Launch site
Air Force Eastern Test Range (AFETR)
Object type
Payload
Rocket body
Debris
Shape & HBR
Unknown
Radar Cross Section
Medium (>0.1 m² and <1 m²)

Expand to show TLE details & history
Last TLE update: 23 hours ago

TLE from 23 hours ago
0 THOR ABLESTAR DEB
1 00407U 61015EG  25242.12891584  .00233073  00000-0  50296-2 0  9999
2 00407  66.2875 200.9466 0012904 205.0398 155.0130 15.43386742289341
Epoch: 2025-08-30T03:05Z
TLE epoch observation values (Epoch: 2025-08-30T03:05:38.328Z)
Latitude
0.00001°
Longitude
175.96925°
Altitude
446.278 km
Speed
7.64 km/s
True Right ascension
13h 23m 47s
True Declination
0° 00' 00"
Sunlit
Object was in daylight at epoch
Visualization orbit readout
Latitude
Unknown
Longitude
Unknown
Altitude
Unknown
Speed
Unknown
Apparent Right ascension
Unknown
Apparent Declination
Unknown
Sunlit
N/A
Visualization observer readout
Local Sidereal Time
17:49:28
Azimuth
Unknown
Elevation
Unknown
Doppler factor
Unknown
Orbital elements
Apogee altitude
443.254 km
Perigee altitude
425.672 km
Semi-major axis
6,812.6 km
Eccentricity
0.00129
Inclination
66.2875°
RAAN
200.9466°
Arg. of periapsis
205.0398°
True anomaly
155.07537°
Mean anomaly
155.013°
Eccentric anomaly
155.04419°
Mean motion
3.85988 °/min
Orbital period
93.27 mins
BSTAR
0.0050296
Loading maneuver chart data...
Computing Atmospheric mass density...

Documentation

Showing up to 5 results
|